Flag for Germany Past Weather in Buchholz in der Nordheide, Lower Saxony, Germany — Yesterday and Last 2 Weeks

54 °F


Feels Like: 51 °F
Forecast: 49 / 56 °F
Wind: 8 mph from Southwest

Location: Hamburg-Finkenwerder

Current Time: Oct 27, 2016 at 1:12:01 PM

Latest Report: Oct 27, 2016 at 12:20 PM

Visibility: 3 mi

Pressure: 30.39 "Hg

Humidity: 94%

Dew Point: 52 °F

Location of Buchholz in der NordheideLocation

Past Weather in Buchholz in der Nordheide — Graph


Buchholz in der Nordheide Temperature Yesterday

Maximum temperature yesterday: 50 °F (at 4:50 PM)
Minimum temperature yesterday: 34 °F (at 7:20 AM)
Average temperature yesterday: 42 °F

High & Low Weather Summary for the Past Weeks

High61 °F (Oct 18, 2:20 PM)100% (Oct 18, 5:50 AM)30.39 "Hg (Oct 18, 5:50 AM)
Low34 °F (Oct 26, 7:20 AM)62% (Oct 14, 2:50 PM)29.86 "Hg (Oct 15, 9:50 AM)
Average48 °F87%30.08 "Hg
* Reported Oct 12 11:20 AM — Oct 27 11:59 AM, Buchholz in der Nordheide, Weather by CustomWeather, © 2016

Note: Actual official high and low records may vary slightly from our data, if they occured in-between our weather recording intervals... More about our weather records


Buchholz in der Nordheide Weather History for the Previous 24 Hours

Scroll right to see more
Time TempWeatherWind HumidityBarometerVisibility
11:59 AM
Thu, Oct 27
54 °FFog.7 mph94%30.39 "Hg2 mi
11:20 AM54 °FFog.7 mph94%30.39 "Hg2 mi
10:50 AM52 °FFog.8 mph100%30.39 "Hg1 mi
10:20 AM52 °FFog.9 mph94%30.36 "Hg1 mi
9:50 AM52 °FFog.9 mph94%30.36 "Hg1 mi
9:20 AM52 °FFog.8 mph94%30.36 "Hg1 mi
8:50 AM52 °FFog.9 mph94%30.36 "Hg1 mi
8:20 AM52 °FFog.8 mph94%30.33 "Hg2 mi
7:50 AM50 °FFog.5 mph100%30.33 "Hg2 mi
7:20 AM50 °FFog.7 mph100%30.33 "Hg2 mi
6:50 AM50 °FFog.7 mph94%30.33 "Hg2 mi
6:20 AM50 °FFog.7 mph94%30.33 "Hg2 mi
5:50 AM50 °FFog.7 mph94%30.33 "Hg2 mi
9:50 PM
Wed, Oct 26
45 °FClear.5 mph93%30.36 "Hg5 mi
9:20 PM45 °FClear.2 mph93%30.36 "Hg5 mi
8:50 PM45 °FClear.3 mph87%30.36 "Hg4 mi
8:20 PM43 °FClear.3 mph93%30.36 "Hg4 mi
7:50 PM45 °FClear.1 mph87%30.36 "Hg10 mi
7:20 PM45 °FClear.2 mph87%30.36 "Hg10 mi
6:50 PM45 °FClear.3 mph87%30.36 "Hg5 mi
6:20 PM45 °FClear.3 mph93%30.36 "Hg5 mi
5:50 PM46 °FClear.No wind82%30.36 "Hg6 mi
5:20 PM48 °FScattered clouds.3 mph76%30.36 "HgN/A
4:50 PM50 °FScattered clouds.5 mph76%30.36 "HgN/A
4:20 PM48 °FScattered clouds.No wind76%30.36 "HgN/A
3:50 PM48 °FScattered clouds.2 mph76%30.36 "HgN/A
3:20 PM48 °FPartly sunny.5 mph76%30.36 "Hg6 mi
2:50 PM48 °FPartly sunny.6 mph76%30.39 "Hg6 mi
2:20 PM48 °FScattered clouds.7 mph82%30.39 "Hg6 mi
1:50 PM48 °FScattered clouds.6 mph82%30.39 "Hg6 mi
1:20 PM46 °FBroken clouds.5 mph93%30.39 "Hg5 mi
Weather by CustomWeather, © 2016

See weather overviewHow to use our weather pages